Flag for U.S.A. Weather past 2 weeks in Kilgore, Texas, U.S.A.

Now
68 °F

Passing clouds.


Feels Like: 68 °F
Forecast: 53 / 73 °F
Wind: 6 mph from North

Location: Gregg County Airport


UV Index: 7 (High)

Visibility: 10 mi


Pressure: 30.22 "Hg

Humidity: 55%

Dew point: 51 °F

Location of KilgoreLocation

Historic Weather in Kilgore

°F

Kilgore temperature yesterday

Maximum temperature yesterday: 68 °F (at 3:53 PM)
Minimum temperature yesterday: 42 °F (at 5:53 AM)
Average temperature yesterday: 56 °F

Past Weeks' High & Low Weather Summary

 TemperatureHumidityPressure
High82 °F (Apr 10, 4:53 PM)94% (Apr 6, 11:02 AM)30.30 "Hg (Apr 6, 11:02 AM)
Low33 °F (Apr 15, 6:53 AM)25% (Apr 9, 3:53 PM)29.67 "Hg (Apr 13, 7:53 PM)
Average59 °F66%30.00 "Hg
* Reported Apr 3 9:53 AM — Apr 18 9:53 AM, Kilgore, Weather by CustomWeather, © 2014

Note: Actual official high and low records may vary slightly from our data, if they occured in-between our weather recording intervals... More about our weather records

Advertising

Historic Weather Conditions — Data for Previous 24 hours

 ConditionsComfort  
Time TempWeatherWind HumidityBarometerVisibility
9:53 AM
Apr 18
65 °FSunny.9 mph61%30.22 "Hg10 mi
8:53 AM60 °FSunny.5 mph75%30.21 "Hg9 mi
7:53 AM55 °FOvercast.5 mph87%30.21 "Hg7 mi
6:53 AM54 °FPassing clouds.No wind86%30.19 "Hg8 mi
5:53 AM55 °FOvercast.No wind87%30.17 "Hg9 mi
4:53 AM55 °FMostly cloudy.No wind87%30.16 "Hg9 mi
3:53 AM55 °FOvercast.No wind87%30.16 "Hg9 mi
2:53 AM55 °FOvercast.No wind87%30.15 "Hg10 mi
1:53 AM57 °FOvercast.No wind74%30.16 "Hg10 mi
12:53 AM56 °FOvercast.No wind77%30.17 "Hg10 mi
11:53 PM
Apr 17
58 °FPassing clouds.No wind75%30.18 "Hg10 mi
10:53 PM59 °FOvercast.5 mph67%30.16 "Hg10 mi
9:53 PM59 °FPassing clouds.6 mph64%30.17 "Hg10 mi
8:53 PM60 °FPassing clouds.3 mph65%30.17 "Hg10 mi
7:53 PM60 °FScattered clouds.No wind65%30.15 "Hg10 mi
6:53 PM67 °FSunny.6 mph44%30.13 "Hg10 mi
5:53 PM68 °FSunny.9 mph45%30.11 "Hg10 mi
4:53 PM68 °FSunny.8 mph45%30.11 "Hg10 mi
3:53 PM68 °FSunny.7 mph49%30.13 "Hg10 mi
2:53 PM66 °FPassing clouds.7 mph50%30.15 "Hg10 mi
1:53 PM64 °FPassing clouds.7 mph56%30.16 "Hg10 mi
12:53 PM62 °FPartly sunny.9 mph60%30.18 "Hg10 mi
11:53 AM59 °FOvercast.5 mph67%30.20 "Hg10 mi
Weather by CustomWeather, © 2014

See weather overview